When you browse on this site, cookies collect data to enhance your experience and personalize the content and advertising you see.
Visit our Privacy Policy to learn more. By continuing to use the site, you agree to this use of cookies and data.
  • en France
  • Liste des pays
  • À 7 jours
  • Température de l'eau
  • Carte satellitaire
  • Carte météo
  • Widgets météo
  • user-avatar
    Se connecter

    Météo par heure à Yulara

    Ce jour, 23 Mai, Jeudi

    Heure Température Précipitation Vent Pression Humidité
    00:00 +21°C° 0 mm 4 m/s 724 mmHg 36%
    01:00 +21°C° 0 mm 4 m/s 724 mmHg 37%
    02:00 +20°C° 0 mm 4 m/s 724 mmHg 38%
    03:00 +20°C° 0 mm 3 m/s 723 mmHg 40%
    04:00 +19°C° 0 mm 3 m/s 723 mmHg 40%
    05:00 +19°C° 0 mm 3 m/s 724 mmHg 41%
    06:00 +18°C° 0 mm 3 m/s 724 mmHg 41%
    07:00 +20°C° 0 mm 3 m/s 724 mmHg 38%
    08:00 +21°C° 0 mm 4 m/s 724 mmHg 36%
    09:00 +23°C° 0 mm 4 m/s 725 mmHg 32%
    10:00 +25°C° 0 mm 4 m/s 724 mmHg 29%
    11:00 +26°C° 0 mm 4 m/s 724 mmHg 26%
    12:00 +28°C° 0 mm 5 m/s 724 mmHg 23%
    13:00 +28°C° 0 mm 4 m/s 723 mmHg 22%
    14:00 +28°C° 0 mm 4 m/s 723 mmHg 21%
    15:00 +29°C° 0 mm 3 m/s 723 mmHg 19%
    16:00 +27°C° 0 mm 3 m/s 722 mmHg 21%
    17:00 +26°C° 0 mm 3 m/s 722 mmHg 23%
    18:00 +25°C° 0 mm 2 m/s 722 mmHg 24%
    19:00 +24°C° 0 mm 2 m/s 723 mmHg 25%
    20:00 +22°C° 0 mm 3 m/s 723 mmHg 26%
    21:00 +22°C° 0 mm 3 m/s 723 mmHg 27%
    22:00 +21°C° 0 mm 3 m/s 723 mmHg 28%
    23:00 +21°C° 0 mm 3 m/s 723 mmHg 29%

    Demain, 24 Mai, Vendredi

    Heure Température Précipitation Vent Pression Humidité
    00:00 +20°C° 0 mm 3 m/s 723 mmHg 30%
    01:00 +19°C° 0 mm 3 m/s 723 mmHg 31%
    02:00 +19°C° 0 mm 3 m/s 722 mmHg 33%
    03:00 +18°C° 0 mm 3 m/s 722 mmHg 34%
    04:00 +18°C° 0 mm 2 m/s 722 mmHg 36%
    05:00 +17°C° 0 mm 2 m/s 722 mmHg 39%
    06:00 +17°C° 0 mm 2 m/s 721 mmHg 41%
    07:00 +18°C° 0 mm 2 m/s 722 mmHg 38%
    08:00 +20°C° 0 mm 2 m/s 722 mmHg 36%
    09:00 +21°C° 0 mm 2 m/s 722 mmHg 33%
    10:00 +24°C° 0 mm 2 m/s 722 mmHg 30%
    11:00 +25°C° 0 mm 2 m/s 722 mmHg 27%
    12:00 +27°C° 0 mm 3 m/s 722 mmHg 24%
    13:00 +27°C° 0 mm 2 m/s 721 mmHg 23%
    14:00 +27°C° 0 mm 1 m/s 721 mmHg 21%
    15:00 +26°C° 0 mm 0 m/s 720 mmHg 20%
    16:00 +24°C° 0 mm 0 m/s 720 mmHg 23%
    17:00 +25°C° 0 mm 1 m/s 720 mmHg 25%
    18:00 +24°C° 0 mm 1 m/s 720 mmHg 28%
    19:00 +23°C° 0 mm 1 m/s 721 mmHg 28%
    20:00 +23°C° 0 mm 2 m/s 721 mmHg 28%
    21:00 +23°C° 0 mm 2 m/s 721 mmHg 28%
    22:00 +21°C° 0 mm 2 m/s 721 mmHg 30%
    23:00 +21°C° 0 mm 1 m/s 721 mmHg 32%

    Après-demain, 25 Mai, Samedi

    Heure Température Précipitation Vent Pression Humidité
    00:00 +20°C° 0 mm 1 m/s 721 mmHg 35%
    01:00 +20°C° 0 mm 1 m/s 721 mmHg 35%
    02:00 +19°C° 0 mm 1 m/s 720 mmHg 36%
    03:00 +19°C° 0 mm 1 m/s 720 mmHg 37%
    04:00 +19°C° 0 mm 1 m/s 720 mmHg 38%
    05:00 +18°C° 0 mm 1 m/s 720 mmHg 39%
    06:00 +18°C° 0 mm 1 m/s 720 mmHg 40%
    07:00 +19°C° 0 mm 1 m/s 721 mmHg 37%
    08:00 +20°C° 0 mm 2 m/s 721 mmHg 34%
    09:00 +23°C° 0 mm 2 m/s 722 mmHg 31%
    10:00 +24°C° 0 mm 2 m/s 721 mmHg 29%
    11:00 +25°C° 0 mm 1 m/s 721 mmHg 27%
    12:00 +26°C° 0 mm 1 m/s 721 mmHg 25%
    13:00 +27°C° 0 mm 1 m/s 720 mmHg 24%
    14:00 +28°C° 0 mm 1 m/s 720 mmHg 23%
    15:00 +28°C° 0 mm 2 m/s 719 mmHg 22%
    16:00 +27°C° 0 mm 2 m/s 720 mmHg 25%
    17:00 +26°C° 0 mm 3 m/s 720 mmHg 28%
    18:00 +25°C° 0 mm 3 m/s 720 mmHg 31%
    19:00 +23°C° 0 mm 4 m/s 720 mmHg 34%
    20:00 +22°C° 0 mm 4 m/s 721 mmHg 38%
    21:00 +21°C° 0 mm 5 m/s 721 mmHg 42%
    22:00 +20°C° 0 mm 5 m/s 721 mmHg 44%
    23:00 +20°C° 0 mm 5 m/s 721 mmHg 46%

    26 Mai, Dimanche

    Heure Température Précipitation Vent Pression Humidité
    00:00 +19°C° 0 mm 5 m/s 721 mmHg 47%
    01:00 +17°C° 0 mm 5 m/s 721 mmHg 48%
    02:00 +17°C° 0 mm 5 m/s 721 mmHg 49%
    03:00 +17°C° 0 mm 4 m/s 721 mmHg 50%
    04:00 +17°C° 0 mm 4 m/s 721 mmHg 49%
    05:00 +15°C° 0 mm 4 m/s 721 mmHg 47%
    06:00 +15°C° 0 mm 4 m/s 722 mmHg 46%
    07:00 +16°C° 0 mm 5 m/s 722 mmHg 43%
    08:00 +17°C° 0 mm 5 m/s 722 mmHg 40%
    09:00 +17°C° 0 mm 6 m/s 723 mmHg 37%
    10:00 +20°C° 0 mm 5 m/s 723 mmHg 35%
    11:00 +21°C° 0 mm 5 m/s 722 mmHg 34%
    12:00 +23°C° 0 mm 5 m/s 722 mmHg 32%
    13:00 +23°C° 0 mm 4 m/s 722 mmHg 31%
    14:00 +25°C° 0 mm 4 m/s 721 mmHg 31%
    15:00 +25°C° 0 mm 3 m/s 720 mmHg 30%
    16:00 +24°C° 0 mm 3 m/s 721 mmHg 32%
    17:00 +22°C° 0 mm 3 m/s 721 mmHg 34%
    18:00 +21°C° 0 mm 3 m/s 721 mmHg 36%
    19:00 +21°C° 0 mm 3 m/s 721 mmHg 38%
    20:00 +20°C° 0 mm 4 m/s 722 mmHg 40%
    21:00 +19°C° 0 mm 4 m/s 722 mmHg 42%
    22:00 +19°C° 0 mm 4 m/s 722 mmHg 43%
    23:00 +18°C° 0 mm 4 m/s 722 mmHg 45%

    27 Mai, Lundi

    Heure Température Précipitation Vent Pression Humidité
    00:00 +16°C° 0 mm 5 m/s 722 mmHg 46%
    01:00 +16°C° 0 mm 5 m/s 722 mmHg 49%
    02:00 +15°C° 0 mm 5 m/s 722 mmHg 51%
    03:00 +14°C° 0 mm 5 m/s 722 mmHg 53%
    04:00 +14°C° 0 mm 5 m/s 722 mmHg 57%
    05:00 +13°C° 0 mm 5 m/s 723 mmHg 61%
    06:00 +13°C° 0 mm 5 m/s 723 mmHg 65%
    07:00 +13°C° 0 mm 5 m/s 723 mmHg 63%
    08:00 +14°C° 0 mm 6 m/s 724 mmHg 60%
    09:00 +15°C° 0 mm 6 m/s 724 mmHg 58%
    10:00 +17°C° 0 mm 6 m/s 724 mmHg 52%
    11:00 +19°C° 0 mm 5 m/s 723 mmHg 47%
    12:00 +21°C° 0 mm 5 m/s 723 mmHg 42%
    13:00 +21°C° 0 mm 4 m/s 723 mmHg 39%
    14:00 +22°C° 0 mm 4 m/s 722 mmHg 37%
    15:00 +22°C° 0 mm 4 m/s 722 mmHg 34%
    16:00 +21°C° 0 mm 4 m/s 722 mmHg 36%
    17:00 +20°C° 0 mm 3 m/s 722 mmHg 37%
    18:00 +20°C° 0 mm 3 m/s 722 mmHg 39%
    19:00 +19°C° 0 mm 4 m/s 722 mmHg 40%
    20:00 +18°C° 0 mm 4 m/s 723 mmHg 42%
    21:00 +17°C° 0 mm 4 m/s 723 mmHg 43%
    22:00 +15°C° 0 mm 4 m/s 723 mmHg 45%
    23:00 +15°C° 0 mm 4 m/s 723 mmHg 46%

    28 Mai, Mardi

    Heure Température Précipitation Vent Pression Humidité
    00:00 +14°C° 0 mm 4 m/s 723 mmHg 48%
    01:00 +13°C° 0 mm 4 m/s 723 mmHg 49%
    02:00 +13°C° 0 mm 4 m/s 723 mmHg 50%
    03:00 +12°C° 0 mm 3 m/s 722 mmHg 51%
    04:00 +12°C° 0 mm 3 m/s 723 mmHg 52%
    05:00 +11°C° 0 mm 3 m/s 723 mmHg 53%
    06:00 +11°C° 0 mm 3 m/s 723 mmHg 54%
    07:00 +12°C° 0 mm 4 m/s 723 mmHg 50%
    08:00 +13°C° 0 mm 4 m/s 724 mmHg 47%
    09:00 +14°C° 0 mm 4 m/s 724 mmHg 43%
    10:00 +17°C° 0 mm 4 m/s 723 mmHg 40%
    11:00 +18°C° 0 mm 3 m/s 723 mmHg 36%
    12:00 +19°C° 0 mm 3 m/s 723 mmHg 33%
    13:00 +20°C° 0 mm 3 m/s 722 mmHg 31%
    14:00 +21°C° 0 mm 3 m/s 722 mmHg 29%
    15:00 +22°C° 0 mm 3 m/s 721 mmHg 27%
    16:00 +21°C° 0 mm 3 m/s 721 mmHg 29%
    17:00 +20°C° 0 mm 3 m/s 722 mmHg 31%
    18:00 +19°C° 0 mm 3 m/s 722 mmHg 32%
    19:00 +18°C° 0 mm 3 m/s 722 mmHg 34%
    20:00 +17°C° 0 mm 3 m/s 723 mmHg 35%
    21:00 +17°C° 0 mm 3 m/s 723 mmHg 37%
    22:00 +16°C° 0 mm 3 m/s 723 mmHg 39%
    23:00 +14°C° 0 mm 3 m/s 723 mmHg 41%
    Voir plus